Location: Newark
(7.0858°N, 171.3717°E)
Time: 03:35:21
(UTC+00:00)

Vanguard 2 - Pass Details

Date: 02 December 2020
Orbit: 553 x 2937 km, 32.9° (Epoch: 26 January)

Event Time Altitude Azimuth Distance (km) Brightness Sun altitude
Rises 03:26:10 0° 323° (NW) 2,741 10.4 36.7°
Reaches altitude 10° 03:28:27 10° 337° (NNW) 1,931 9.6 36.3°
Maximum altitude 03:32:09 27° 36° (NE) 1,328 8.6 35.5°
Drops below altitude 10° 03:37:00 10° 94° (E) 2,586 9.9 34.5°
Sets 03:40:36 0° 105° (ESE) 3,907 10.8 33.7°
